OpenBCM V1.08-5-g2f4a (Linux)

Packet Radio Mailbox

IZ3LSV

[San Dona' di P. JN]

 Login: GUEST





  
I0OJJ  > KEPS     11.07.25 17:24l 347 Lines 16464 Bytes #21 (0) @ AMSAT
BID : ORB25190.1
Read: GUEST
Subj: 2Line Orbital Elements 25190.AMSAT
Path: IZ3LSV<IW0QNL<HB9ON<DK0WUE<DB0APK<ED1ZAC<EA5URD
Sent: 250709/0030Z @:EA5URD.EAMU.ESP.EU #:13404 XFBB7.07 Bid:ORB25190.1

R:250709/0025Z @:EA2RCF.EAVI.ESP.EU #:1262 [Vitoria] $:ORB25190.1
R:250709/0025z @:I0OJJ.ITA.EU [Rome] obcm1.08-10-g596e
From: I0OJJ @ I0OJJ.ITA.EU (Gustavo)
To:   KEPS @ AMSAT
X-Info: This message was generated automatically


QST de W1STR

AMSAT Orbital Elements for Amateur Satellites in TLE Format
From Orbital Analysis Office
New England Sci-Tech STEM Education Center
Natick, MA July 09, 2025
To all radio amateurs


These element sets describe the orbits of various satellites 
in use by the amateur radio community. For details see:
www.amsat.org/keplerian-elements-formats/

A daily update of element sets is available at:
www.amsat.org/tle/daily-bulletin.txt
or without bulletin text:
www.amsat.org/tle/dailytle.txt


AO-07
1 07530U 74089B   25189.55590662 -.00000029  00000-0  11050-3 0  9998
2 07530 101.9931 194.1284 0012617  67.7239  97.8811 12.53690033317457
UO-11
1 14781U 84021B   25189.48910369  .00000857  00000-0  95815-4 0  9993
2 14781  97.7559 155.2894 0006445 234.6897 125.3718 14.89453565205944
AO-27
1 22825U 93061C   25189.44875148  .00000067  00000-0  42862-4 0  9993
2 22825  98.7354 251.1463 0008968  35.3457 324.8318 14.30807237657841
FO-29
1 24278U 96046B   25189.66036786 -.00000029  00000-0  10186-4 0  9997
2 24278  98.5722  79.7231 0348826 267.2601  88.8573 13.53250140426951
NOAA-15
1 25338U 98030A   25189.84017239  .00000164  00000-0  84880-4 0  9993
2 25338  98.5339 214.2654 0008985 274.0928  85.9226 14.26993679412573
GO-32
1 25397U 98043D   25189.84497884  .00000035  00000-0  35068-4 0  9991
2 25397  98.9715 169.5769 0002278 108.7415 251.4010 14.24320997402678
ISS
1 25544U 98067A   25189.85791014  .00007133  00000-0  13082-3 0  9991
2 25544  51.6334 199.6604 0002569 349.2805  10.8129 15.50441982518523
NO-44
1 26931U 01043C   25189.56613539  .00000084  00000-0  62432-4 0  9995
2 26931  67.0511  52.8955 0006211 276.8130  83.2265 14.31746118241250
SO-50
1 27607U 02058C   25189.84570052  .00000974  00000-0  13835-3 0  9996
2 27607  64.5527 110.1937 0059535 327.6553  32.0907 14.81696161213777
CO-55
1 27844U 03031E   25189.55839279  .00000229  00000-0  11854-3 0  9990
2 27844  98.6755 197.4575 0010893 101.9984 258.2416 14.24014652142765
CO-57
1 27848U 03031J   25189.45006586  .00000206  00000-0  10990-3 0  9995
2 27848  98.6783 197.3347 0010629 117.7111 242.5146 14.23346790142474
RS-22
1 27939U 03042A   25189.83878933  .00000734  00000-0  12426-3 0  9995
2 27939  98.3300   0.0009 0010134 278.2076 220.0962 14.72408141165134
CO-58
1 28895U 05043F   25189.35833759  .00001152  00000-0  19561-3 0  9996
2 28895  98.2531 334.0746 0013891 211.3704 148.6674 14.71088643 51171
CO-65
1 32785U 08021C   25189.53570740  .00004055  00000-0  29262-3 0  9990
2 32785  97.7857 160.9191 0011128 111.9202 248.3208 15.04650823933439
CO-66
1 32791U 08021J   25189.49097721  .00008932  00000-0  42673-3 0  9994
2 32791  97.7280 170.1894 0005643  79.1023 281.0846 15.19261262934883
RS-30
1 32953U 08025A   25189.77681751  .00000040  00000-0  21821-3 0  9995
2 32953  82.5009 209.0209 0018831 346.0157  14.0399 12.43166078777169
NOAA-19
1 33591U 09005A   25189.72389481  .00000135  00000-0  95998-4 0  9995
2 33591  98.9962 254.5904 0012680 282.1725  77.8026 14.13386574846223
SRMSAT
1 37841U 11058D   25189.58480086  .00000369  00000-0  56498-4 0  9996
2 37841  19.9736 339.0290 0011836  24.1264  50.4834 14.11443105709211
ZACUBE-1
1 39417U 13066B   25189.86722208  .00002926  00000-0  25567-3 0  9997
2 39417  97.7800 146.7314 0042987 315.6243  44.1536 14.96882481629299
Delfi-N3xt
1 39428U 13066N   25189.73486711  .00003422  00000-0  35021-3 0  9999
2 39428  97.8339 107.0652 0082511 264.5404  94.6397 14.88696543623597
GOMX-1
1 39430U 13066Q   25189.87005340  .00001510  00000-0  23924-3 0  9997
2 39430  97.6810  46.7334 0133804  98.5751 263.0642 14.67734327619703
LO-74
1 39440U 13066AA  25189.42000943  .00002437  00000-0  24872-3 0  9995
2 39440  97.8499 133.7842 0063525  85.0418 275.8048 14.90089536625735
AO-73
1 39444U 13066AE  25189.45003805  .00005197  00000-0  38756-3 0  9994
2 39444  97.7808 151.4794 0040992 289.4975  70.1824 15.02653350627922
DTUSAT-2
1 40030U 14033W   25189.41255179  .00005308  00000-0  34390-3 0  9995
2 40030  98.0552 162.6333 0008189 331.9276  28.1508 15.08568769600745
EO-80
1 40032U 14033Y   25189.49757873  .00003693  00000-0  24025-3 0  9992
2 40032  98.0438 162.3378 0006738 260.5576  99.4889 15.08647207600731
LILACSAT-2
1 40908U 15049K   25189.86445276  .00008655  00000-0  22246-3 0  9990
2 40908  97.5045 210.9265 0010579  63.0828 297.1497 15.39478944542731
IO-86
1 40931U 15052B   25151.18580175  .00001241  00000-0  78118-4 0  9996
2 40931   6.0006  24.0987 0012733 338.8432  21.1169 14.78805930523047
Horyu-4
1 41340U 16012D   25189.56215689  .00016065  00000-0  41358-3 0  9991
2 41340  30.9971 296.8787 0006436   8.2086 351.8664 15.37932930517258
Lapan A3
1 41603U 16040E   25189.86710372  .00002312  00000-0  81915-4 0  9990
2 41603  97.1367 193.3281 0011693 155.9697 204.2093 15.30022772502262
CAS-2T
1 41847U 16066G   25189.44859919  .00001237  00000-0  18272-3 0  9993
2 41847  98.4195 263.6574 0347051  91.2048 272.8918 14.43570053455181
CAS-4B
1 42759U 17034B   25189.88704396  .00059525  00000-0  54081-3 0  9999
2 42759  43.0044 146.7387 0019401 138.9039 221.3293 15.66884052447190
CAS-4A
1 42761U 17034D   25189.89426007  .00069493  00000-0  59042-3 0  9990
2 42761  43.0081 143.5019 0020542 143.9976 216.2278 15.68437325447224
TechnoSat
1 42829U 17042E   25189.82778381  .00002311  00000-0  18101-3 0  9999
2 42829  97.3846 357.1341 0016574 175.9064 184.2300 15.01829463435114
AO-91
1 43017U 17073E   25189.58329557  .00007259  00000-0  36738-3 0  9995
2 43017  97.5223  59.6206 0172890  68.0257 293.9242 15.05139229413576
S-Net D
1 43186U 18014G   25189.28803927  .00003638  00000-0  21518-3 0  9990
2 43186  97.5604  91.9027 0010511 121.0766 239.1498 15.12042070406710
S-Net B
1 43187U 18014H   25189.29381640  .00003293  00000-0  19521-3 0  9993
2 43187  97.5609  91.8817 0011312 117.2475 242.9909 15.12021704406716
S-Net A
1 43188U 18014J   25189.28833145  .00003662  00000-0  21654-3 0  9995
2 43188  97.5616  92.0301 0011167 117.9559 242.2803 15.12047105406713
S-Net C
1 43189U 18014K   25189.29629573  .00003214  00000-0  19056-3 0  9991
2 43189  97.5634  92.0571 0012806 111.9183 248.3410 15.12017505405262
Ten-Koh
1 43677U 18084G   25189.46822241  .00001530  00000-0  12601-3 0  9994
2 43677  98.0845   2.8672 0008136 156.1774 203.9826 15.00679211364574
PO-101
1 43678U 18084H   25189.83815270  .00002108  00000-0  18184-3 0  9994
2 43678  98.1043   7.0803 0008635 176.6469 183.4811 14.98432572364761
QO-100
1 43700U 18090A   25189.35351727  .00000160  00000-0  00000-0 0  9997
2 43700   0.0146 328.5500 0002586 173.1910 297.8665  1.00272889 24223
MinXSS-2
1 43758U 18099A   25189.44261701  .00011521  00000-0  44346-3 0  9998
2 43758  97.5013 255.5830 0012616  60.5847 299.6649 15.26465352361372
AO-95
1 43770U 18099N   25189.59732352  .00005936  00000-0  29762-3 0  9991
2 43770  97.4905 247.3669 0012221 110.5449 249.7097 15.17654778360958
RANGE-A
1 43773U 18099R   25189.37580851  .00002748  00000-0  17598-3 0  9997
2 43773  97.4465 236.9433 0013071  93.8551 266.4173 15.09302977360566
MOVE-II
1 43780U 18099Y   25189.78519328  .01277230  96069-3  18720-2 0  9992
2 43780  97.4580 268.1593 0011549 252.3626 107.6394 16.05199924362431
SNUSat 2
1 43782U 18099AA  25189.14343508  .00005275  00000-0  28580-3 0  9999
2 43782  97.4588 243.4355 0013245  60.7096 299.5459 15.14957616360823
SnugLite
1 43784U 18099AC  25189.88480604  .00006265  00000-0  31129-3 0  9994
2 43784  97.4399 243.7833 0004801  69.6592 290.5157 15.17999199361086
ITASat 1
1 43786U 18099AE  25189.57788910  .00004525  00000-0  25759-3 0  9992
2 43786  97.4550 243.2853 0015848 105.8363 254.4617 15.13226170360847
EAGLET 1
1 43790U 18099AJ  25189.72425432  .00002239  00000-0  14433-3 0  9998
2 43790  97.4748 243.2881 0013737  90.5724 269.7079 15.09252839360463
ESEO
1 43792U 18099AL  25189.36859252  .00000574  00000-0  47260-4 0  9996
2 43792  97.4445 235.8207 0014362  66.5138 293.7595 15.02694055360143
CSIM
1 43793U 18099AM  25189.29051919  .00088849  00000-0  41123-3 0  9995
2 43793  97.4771 269.5571 0001958 153.7423 206.3946 15.83235720362171
JO-97
1 43803U 18099AX  25189.59502189  .00007763  00000-0  34906-3 0  9997
2 43803  97.4650 248.4192 0008345  54.4640 305.7373 15.21367608361180
Suomi 100
1 43804U 18099AY  25189.39338765  .00006842  00000-0  33099-3 0  9992
2 43804  97.4717 247.4321 0013270  53.8016 306.4444 15.18836023361074
ISAT
1 43879U 18111D   25189.72242333  .00014097  00000-0  47512-3 0  9997
2 43879  97.5942 104.7755 0010840  95.6217 264.6260 15.30798599356131
UWE-4
1 43880U 18111E   25188.73236346  .00010471  00000-0  40220-3 0  9997
2 43880  97.5888 102.0407 0013816 109.2221 251.0513 15.26549309357927
Sparrow
1 43881U 18111F   25189.54973904  .00014129  00000-0  45785-3 0  9991
2 43881  97.6091 107.5909 0008675 126.5228 233.6813 15.32085486358229
Prox-1
1 44339U 19036A   25189.80808455  .00006066  00000-0  74235-3 0  9997
2 44339  23.9955 229.7366 0007779  50.1005 310.0176 14.80421604322447
SONATE
1 44400U 19038Q   25185.47540524  .09032085  27445-5  31847-3 0  9995
2 44400  97.6609 216.4776 0012462 246.7970 113.2018 16.43248376333575
Taurus 1
1 44530U 19059C   25189.87064869  .00003721  00000-0  68654-3 0  9998
2 44530  98.6093 330.6632 0007928 306.6262  53.4210 14.66113231308236
Duchifat 3
1 44854U 19089C   25189.65536196  .00034135  00000-0  61898-3 0  9999
2 44854  36.9403 170.0222 0005823 214.5395 145.4984 15.48674072307451
